Orbital Elements at Epoch 2459200.5 (2020-Dec-17.0) TDB
Reference: JPL 19 (heliocentric ecliptic J2000)
Element | Value | Uncertainty (1-sigma) | Units |
e | .1120569278893024 | 3.5364e-08 | |
a | 2.289670038982283 | 1.1963e-08 | au |
q | 2.033096648533749 | 8.6366e-08 | au |
i | 6.46656995990289 | 5.1373e-06 | deg |
node | 193.8220447604058 | 3.1362e-05 | deg |
peri | 90.57412037380037 | 4.1052e-05 | deg |
M | 355.1265575674711 | 2.8468e-05 | deg |
tp | 2459217.631331476523 (2021-Jan-03.13133148) | 0.00010012 | TDB |
period | 1265.487264276102 3.46 | 9.9178e-06 2.715e-08 | d yr |
n | .2844754033980192 | 2.2295e-09 | deg/d |
Q | 2.546243429430817 | 1.3303e-08 | au |
|
| | Orbit Determination Parameters
Additional Information
|